FW8253 Weather Reports


time (UTC)temp
C
wind
direction
speed
KPH
gust
KPH
rain 1hr
cm
rain 24hr
cm
rain mn
cm
humidity
%
barometer
mb
20260903180519 37 26 0.0 0.0 0.00 0.00 0.00 49 1017.5
20260903180018 37 133 0.0 0.0 0.00 0.00 0.00 50 1017.4
20260903175517 37 166 0.0 0.0 0.00 0.00 0.00 49 1017.4
20260903175016 36 214 0.0 0.0 0.00 0.00 0.00 53 1017.5
20260903174511 35 166 0.0 0.0 0.00 0.00 0.00 54 1017.4
20260903174012 36 114 0.0 0.0 0.00 0.00 0.00 53 1017.5
20260903173506 37 128 0.0 0.0 0.00 0.00 0.00 51 1017.6
20260903173003 37 160 0.0 0.0 0.00 0.00 0.00 49 1017.8
20260903172457 37 207 0.0 0.0 0.00 0.00 0.00 51 1017.7
20260903171953 37 238 0.0 0.0 0.00 0.00 0.00 51 1017.8
20260903171447 36 174 0.0 0.0 0.00 0.00 0.00 52 1018.1
20260903170942 36 256 0.0 0.0 0.00 0.00 0.00 52 1017.7
20260903170437 36 0 0.0 0.0 0.00 0.00 0.00 53 1017.9
20260903165936 37 216 0.0 0.0 0.00 0.00 0.00 52 1018.0
20260903165430 37 1 0.0 0.0 0.00 0.00 0.00 52 1018.1
20260903164931 37 293 0.0 0.0 0.00 0.00 0.00 52 1018.2
20260903164426 36 355 0.0 0.0 0.00 0.00 0.00 51 1018.2
20260903163925 37 222 0.0 0.0 0.00 0.00 0.00 51 1018.0
20260903163421 37 225 0.0 0.0 0.00 0.00 0.00 52 1018.1
20260903162917 36 13 0.0 0.0 0.00 0.00 0.00 52 1018.5
20260903162414 36 212 0.0 0.0 0.00 0.00 0.00 52 1018.3
20260903161909 36 214 0.0 0.0 0.00 0.00 0.00 54 1018.5
20260903161404 35 179 0.0 0.0 0.00 0.00 0.00 54 1018.4
20260903160900 36 217 0.0 0.0 0.00 0.00 0.00 53 1018.6
20260903160359 36 29 0.0 0.0 0.00 0.00 0.00 54 1018.7
20260903155857 35 144 0.0 0.0 0.00 0.00 0.00 54 1018.8
20260903155353 35 168 0.0 0.0 0.00 0.00 0.00 57 1018.8
20260903154848 34 249 0.0 0.0 0.00 0.00 0.00 58 1018.8
20260903154345 34 240 0.0 0.0 0.00 0.00 0.00 58 1018.7
20260903153839 33 229 0.0 0.0 0.00 0.00 0.00 60 1019.1
20260903153335 34 328 0.0 0.0 0.00 0.00 0.00 61 1019.0
20260903152832 33 158 0.0 0.0 0.00 0.00 0.00 60 1019.1
20260903152327 33 80 0.0 0.0 0.00 0.00 0.00 62 1019.0
20260903151822 33 236 0.0 0.0 0.00 0.00 0.00 63 1018.9
20260903151318 33 181 0.0 0.0 0.00 0.00 0.00 60 1018.8
20260903150817 32 210 0.0 0.0 0.00 0.00 0.00 63 1019.0
20260903150318 33 192 0.0 0.0 0.00 0.00 0.00 65 1019.2
20260903145812 32 190 0.0 0.0 0.00 0.00 0.00 61 1019.0
20260903145307 33 243 0.0 0.0 0.00 0.00 0.00 62 1019.2
20260903144807 33 279 0.0 0.0 0.00 0.00 0.00 62 1018.9
20260903144302 33 185 0.0 0.0 0.00 0.00 0.00 62 1018.9
20260903143758 32 195 0.0 0.0 0.00 0.00 0.00 64 1019.0
20260903143254 31 212 0.0 0.0 0.00 0.00 0.00 66 1018.9
20260903142749 31 234 0.0 0.0 0.00 0.00 0.00 67 1019.0
20260903142245 31 219 0.0 0.0 0.00 0.00 0.00 65 1019.0
20260903141741 31 241 0.0 0.0 0.00 0.00 0.00 66 1019.1
20260903141236 31 276 0.0 0.0 0.00 0.00 0.00 65 1019.0
20260903140731 31 245 0.0 0.0 0.00 0.00 0.00 74 1018.8
20260903140226 31 245 0.0 0.0 0.00 0.00 0.00 72 1018.9
20260903135722 31 248 0.0 0.0 0.00 0.00 0.00 73 1018.9
20260903135217 30 179 0.0 0.0 0.00 0.00 0.00 74 1019.1
20260903134716 30 259 0.0 0.0 0.00 0.00 0.00 75 1019.1
20260903134212 28 234 0.0 0.0 0.00 0.00 0.00 78 1019.0
20260903133710 28 235 0.0 0.0 0.00 0.00 0.00 81 1019.2
20260903133206 29 234 0.0 0.0 0.00 0.00 0.00 80 1019.1
20260903132706 28 235 0.0 0.0 0.00 0.00 0.00 80 1019.2
20260903132200 28 236 0.0 0.0 0.00 0.00 0.00 80 1019.2
20260903131655 28 178 0.0 0.0 0.00 0.00 0.00 84 1019.2
20260903131154 27 178 0.0 0.0 0.00 0.00 0.00 87 1019.2
20260903130650 26 178 0.0 0.0 0.00 0.00 0.00 89 1019.5
20260903130144 26 178 0.0 0.0 0.00 0.00 0.00 90 1019.3
20260903125642 26 178 0.0 0.0 0.00 0.00 0.00 90 1019.6
20260903125137 25 177 0.0 0.0 0.00 0.00 0.00 92 1019.4
20260903124632 25 177 0.0 0.0 0.00 0.00 0.00 92 1019.5
20260903124131 25 177 0.0 0.0 0.00 0.00 0.00 94 1019.3
20260903123626 25 177 0.0 0.0 0.00 0.00 0.00 95 1019.4
20260903123125 24 177 0.0 0.0 0.00 0.00 0.00 96 1019.5
20260903122625 23 177 0.0 0.0 0.00 0.00 0.00 97 1019.5
20260903122125 23 177 0.0 0.0 0.00 0.00 0.00 98 1019.7
20260903121624 23 177 0.0 0.0 0.00 0.00 0.00 99 1019.4
20260903121120 22 177 0.0 0.0 0.00 0.00 0.00 99 1019.5
20260903120618 22 177 0.0 0.0 0.00 0.00 0.00 99 1019.5
20260903120113 22 177 0.0 0.0 0.00 0.00 0.00 99 1019.5
20260903115611 22 177 0.0 0.0 0.00 0.00 0.00 99 1019.2
20260903115107 22 177 0.0 0.0 0.00 0.00 0.00 99 1019.3
20260903114602 22 177 0.0 0.0 0.00 0.00 0.00 99 1019.4
20260903114058 22 177 0.0 0.0 0.00 0.00 0.00 99 1019.2
20260903113553 22 177 0.0 0.0 0.00 0.00 0.00 99 1019.3
20260903113049 22 177 0.0 0.0 0.00 0.00 0.00 99 1019.2
20260903112545 21 177 0.0 0.0 0.00 0.00 0.00 99 1019.2
20260903112044 21 177 0.0 0.0 0.00 0.00 0.00 99 1019.2
20260903111543 21 177 0.0 0.0 0.00 0.00 0.00 99 1019.1
20260903111039 22 177 0.0 0.0 0.00 0.00 0.00 99 1019.1
20260903110536 22 177 0.0 0.0 0.00 0.00 0.00 99 1018.8
20260903110030 22 177 0.0 0.0 0.00 0.00 0.00 99 1018.8
20260903105525 21 177 0.0 0.0 0.00 0.00 0.00 99 1018.8
20260903105020 22 177 0.0 0.0 0.00 0.00 0.00 99 1019.0
20260903104520 22 177 0.0 0.0 0.00 0.00 0.00 99 1018.7
20260903104016 22 177 0.0 0.0 0.00 0.00 0.00 99 1018.6
20260903103511 22 177 0.0 0.0 0.00 0.00 0.00 99 1018.5
20260903103008 22 177 0.0 0.0 0.00 0.00 0.00 99 1018.5
20260903102503 22 177 0.0 0.0 0.00 0.00 0.00 99 1018.5
20260903102001 22 177 0.0 0.0 0.00 0.00 0.00 99 1018.5
20260903101456 22 177 0.0 0.0 0.00 0.00 0.00 99 1018.4
20260903100952 22 177 0.0 0.0 0.00 0.00 0.00 99 1018.5
20260903100446 22 176 0.0 0.0 0.00 0.00 0.00 99 1018.3
20260903095944 22 177 0.0 0.0 0.00 0.00 0.00 99 1018.2
20260903095438 22 176 0.0 0.0 0.00 0.00 0.00 99 1018.3
20260903094934 22 176 0.0 0.0 0.00 0.00 0.00 99 1018.1
20260903094433 22 176 0.0 0.0 0.00 0.00 0.00 99 1018.3
20260903093929 22 176 0.0 0.0 0.00 0.00 0.00 99 1018.1
20260903093424 22 176 0.0 0.0 0.00 0.00 0.00 99 1018.2
20260903092920 22 176 0.0 0.0 0.00 0.00 0.00 99 1018.2
20260903092419 22 178 0.0 0.0 0.00 0.00 0.00 99 1018.2
20260903091918 22 178 0.0 0.0 0.00 0.00 0.00 99 1018.1
20260903091417 22 178 0.0 0.0 0.00 0.00 0.00 99 1018.2
20260903090912 22 178 0.0 0.0 0.00 0.00 0.00 99 1018.0
20260903090408 22 178 0.0 0.0 0.00 0.00 0.00 98 1018.2
20260903085906 22 178 0.0 0.0 0.00 0.00 0.00 98 1018.1
20260903085405 22 179 0.0 0.0 0.00 0.00 0.00 98 1018.2
20260903084905 22 179 0.0 0.0 0.00 0.00 0.00 98 1018.3
20260903084403 22 179 0.0 0.0 0.00 0.00 0.00 98 1018.1
20260903083859 22 178 0.0 0.0 0.00 0.00 0.00 98 1017.9
20260903083354 22 178 0.0 0.0 0.00 0.00 0.00 98 1018.1
20260903082853 22 178 0.0 0.0 0.00 0.00 0.00 98 1017.9
20260903082348 22 178 0.0 0.0 0.00 0.00 0.00 98 1017.7
20260903081844 22 178 0.0 0.0 0.00 0.00 0.00 98 1017.8
20260903081339 22 183 0.0 0.0 0.00 0.00 0.00 98 1017.9
20260903080835 23 184 0.0 0.0 0.00 0.00 0.00 98 1017.9
20260903080332 23 184 0.0 0.0 0.00 0.00 0.00 97 1017.9
20260903075831 23 183 0.0 0.0 0.00 0.00 0.00 97 1017.8
20260903075327 23 184 0.0 0.0 0.00 0.00 0.00 97 1017.9
20260903074826 23 183 0.0 0.0 0.00 0.00 0.00 97 1017.5
20260903074321 23 183 0.0 0.0 0.00 0.00 0.00 97 1017.8
20260903073817 23 183 0.0 0.0 0.00 0.00 0.00 97 1017.8
20260903073312 23 183 0.0 0.0 0.00 0.00 0.00 97 1017.7
20260903072808 23 183 0.0 0.0 0.00 0.00 0.00 97 1017.7
20260903072306 23 183 0.0 0.0 0.00 0.00 0.00 97 1017.8
20260903071800 23 183 0.0 0.0 0.00 0.00 0.00 97 1017.8
20260903071256 23 187 0.0 0.0 0.00 0.00 0.00 96 1017.7
20260903070750 23 187 0.0 0.0 0.00 0.00 0.00 96 1017.6
20260903070246 23 187 0.0 0.0 0.00 0.00 0.00 96 1017.6
20260903065741 23 187 0.0 0.0 0.00 0.00 0.00 96 1017.6
20260903065240 23 187 0.0 0.0 0.00 0.00 0.00 96 1017.7
20260903064738 23 187 0.0 0.0 0.00 0.00 0.00 96 1017.6
20260903064234 23 193 0.0 0.0 0.00 0.00 0.00 96 1017.9
20260903063731 23 193 0.0 0.0 0.00 0.00 0.00 95 1017.6
20260903063225 24 193 0.0 0.0 0.00 0.00 0.00 95 1017.9
20260903062721 24 193 0.0 0.0 0.00 0.00 0.00 95 1018.0
20260903062221 24 193 0.0 0.0 0.00 0.00 0.00 94 1018.0
20260903061718 24 193 0.0 0.0 0.00 0.00 0.00 94 1018.0
20260903061215 24 192 0.0 0.0 0.00 0.00 0.00 93 1018.1
20260903060712 25 198 0.0 0.0 0.00 0.00 0.00 93 1018.1
20260903060212 25 198 0.0 0.0 0.00 0.00 0.00 93 1018.2
20260903055709 25 197 0.0 0.0 0.00 0.00 0.00 93 1018.1
20260903055208 25 195 0.0 0.0 0.00 0.00 0.00 93 1018.1
20260903054703 25 204 0.0 0.0 0.00 0.00 0.00 92 1018.2
20260903054158 25 197 0.0 0.0 0.00 0.00 0.00 92 1018.3
20260903053655 25 188 0.0 0.0 0.00 0.00 0.00 92 1018.2
20260903053149 25 195 0.0 0.0 0.00 0.00 0.00 92 1018.3
20260903052645 25 178 0.0 0.0 0.00 0.00 0.00 92 1018.3
20260903052141 25 178 0.0 0.0 0.00 0.00 0.00 92 1018.2
20260903051636 25 180 0.0 0.0 0.00 0.00 0.00 91 1018.3
20260903051132 25 182 0.0 0.0 0.00 0.00 0.00 91 1018.4
20260903050632 25 192 0.0 0.0 0.00 0.00 0.00 91 1018.5
20260903050126 25 181 0.0 0.0 0.00 0.00 0.00 91 1018.5
20260903045625 25 184 0.0 0.0 0.00 0.00 0.00 91 1018.2
20260903045123 25 186 0.0 0.0 0.00 0.00 0.00 91 1018.5
20260903044618 25 189 0.0 0.0 0.00 0.00 0.00 91 1018.2
20260903044114 25 188 0.0 0.0 0.00 0.00 0.00 91 1018.2
20260903043610 26 200 0.0 0.0 0.00 0.00 0.00 91 1018.2
20260903043109 26 216 0.0 0.0 0.00 0.00 0.00 90 1018.3
20260903042603 26 216 0.0 0.0 0.00 0.00 0.00 90 1018.5
20260903042059 26 216 0.0 0.0 0.00 0.00 0.00 90 1018.2
20260903041556 26 216 0.0 0.0 0.00 0.00 0.00 90 1018.4
20260903041055 26 219 0.0 0.0 0.00 0.00 0.00 89 1018.4
20260903040554 26 186 0.0 0.0 0.00 0.00 0.00 89 1018.5
20260903040052 26 181 0.0 0.0 0.00 0.00 0.00 89 1018.5
20260903035546 26 180 0.0 0.0 0.00 0.00 0.00 88 1018.5
20260903035043 26 179 0.0 0.0 0.00 0.00 0.00 88 1018.5
20260903034537 26 191 0.0 0.0 0.00 0.00 0.00 87 1018.4
20260903034032 27 191 0.0 0.0 0.00 0.00 0.00 87 1018.7
20260903033527 27 183 0.0 0.0 0.00 0.00 0.00 86 1018.5
20260903033023 27 185 0.0 0.0 0.00 0.00 0.00 87 1018.3
20260903032518 27 179 0.0 0.0 0.00 0.00 0.00 86 1018.7
20260903032013 27 175 0.0 0.0 0.00 0.00 0.00 86 1018.5
20260903031513 27 183 0.0 0.0 0.00 0.00 0.00 86 1018.6
20260903031008 27 190 0.0 0.0 0.00 0.00 0.00 86 1018.4
20260903030503 27 189 0.0 0.0 0.00 0.00 0.00 85 1018.5
20260903025959 27 188 0.0 0.0 0.00 0.00 0.00 86 1018.6
20260903025455 27 189 0.0 0.0 0.00 0.00 0.00 85 1018.5
20260903024950 27 191 0.0 0.0 0.00 0.00 0.00 85 1018.6
20260903024449 27 187 0.0 0.0 0.00 0.00 0.00 85 1018.3
20260903023944 27 199 0.0 0.0 0.00 0.00 0.00 85 1018.5
20260903023440 27 185 0.0 0.0 0.00 0.00 0.00 85 1018.4
20260903022934 27 184 0.0 0.0 0.00 0.00 0.00 85 1018.8
20260903022428 27 177 0.0 0.0 0.00 0.00 0.00 85 1018.5
20260903021927 27 178 0.0 0.0 0.00 0.00 0.00 85 1018.3
20260903021423 27 182 0.0 0.0 0.00 0.00 0.00 85 1018.3
20260903020923 27 185 0.0 0.0 0.00 0.00 0.00 85 1018.5
20260903020418 27 173 0.0 0.0 0.00 0.00 0.00 84 1018.2
20260903015913 27 173 0.0 0.0 0.00 0.00 0.00 84 1018.4
20260903015408 27 174 0.0 0.0 0.00 0.00 0.00 84 1018.2
20260903014903 27 174 0.0 0.0 0.00 0.00 0.00 84 1018.2
20260903014357 27 174 0.0 0.0 0.00 0.00 0.00 83 1018.1
20260903013852 27 174 0.0 0.0 0.00 0.00 0.00 83 1018.1
20260903013351 28 174 0.0 0.0 0.00 0.00 0.00 82 1018.0
20260903012851 28 175 0.0 0.0 0.00 0.00 0.00 82 1017.8
20260903012345 28 176 0.0 0.0 0.00 0.00 0.00 82 1017.7
20260903011839 28 175 0.0 0.0 0.00 0.00 0.00 81 1017.9
20260903011338 28 229 0.0 0.0 0.00 0.00 0.00 81 1017.9
20260903010834 28 229 0.0 0.0 0.00 0.00 0.00 81 1017.8
20260903010329 28 229 0.0 0.0 0.00 0.00 0.00 81 1017.4
20260903005827 28 229 0.0 0.0 0.00 0.00 0.00 80 1017.7
20260903005323 28 229 0.0 0.0 0.00 0.00 0.00 79 1017.4
20260903004818 29 229 0.0 0.0 0.00 0.00 0.00 79 1017.5
20260903004314 29 229 0.0 0.0 0.00 0.00 0.00 78 1017.3
20260903003809 29 229 0.0 0.0 0.00 0.00 0.00 78 1017.3
20260903003304 29 229 0.0 0.0 0.00 0.00 0.00 79 1017.3
20260903002758 30 228 0.0 0.0 0.00 0.00 0.00 77 1017.2
20260903002258 30 228 0.0 0.0 0.00 0.00 0.00 76 1017.0
20260903001753 30 227 0.0 0.0 0.00 0.00 0.00 76 1017.2
20260903001248 30 227 0.0 0.0 0.00 0.00 0.00 75 1017.1
20260903000743 30 227 0.0 0.0 0.00 0.00 0.00 75 1017.2
20260903000243 30 227 0.0 0.0 0.00 0.00 0.00 75 1016.9
20260902235741 31 227 0.0 0.0 0.00 0.00 0.00 75 1017.1
20260902235237 31 229 0.0 0.0 0.00 0.00 0.00 74 1017.0
20260902234736 31 224 0.0 0.0 0.00 0.00 0.00 73 1017.0
20260902234236 31 221 0.0 0.0 0.00 0.00 0.00 72 1016.9
20260902233736 31 222 0.0 0.0 0.00 0.00 0.00 72 1017.0
20260902233230 31 224 0.0 0.0 0.00 0.00 0.00 72 1016.9
20260902232728 32 229 0.0 0.0 0.00 0.00 0.00 71 1016.9
20260902232223 32 224 0.0 0.0 0.00 0.00 0.00 71 1016.8
20260902231717 32 234 0.0 0.0 0.00 0.00 0.00 70 1016.9
20260902231217 32 226 0.0 0.0 0.00 0.00 0.00 70 1016.9
20260902230713 32 232 0.0 0.0 0.00 0.00 0.00 69 1017.0
20260902230212 32 234 0.0 0.0 0.00 0.00 0.00 68 1016.6
20260902225707 32 234 0.0 0.0 0.00 0.00 0.00 69 1016.5
20260902225207 32 231 0.0 0.0 0.00 0.00 0.00 67 1016.8
20260902224705 32 229 0.0 0.0 0.00 0.00 0.00 67 1016.6
20260902224201 33 232 0.0 0.0 0.00 0.00 0.00 67 1016.5
20260902223657 33 234 0.0 0.0 0.00 0.00 0.00 65 1016.8
20260902223156 33 221 0.0 0.0 0.00 0.00 0.00 63 1016.4
20260902222655 33 232 0.0 0.0 0.00 0.00 0.00 64 1016.7
20260902222154 33 280 0.0 0.0 0.00 0.00 0.00 61 1016.6
20260902221649 34 223 0.0 0.0 0.00 0.00 0.00 61 1016.9
20260902221149 35 227 0.0 0.0 0.00 0.00 0.00 59 1016.8
20260902220644 35 218 0.0 0.0 0.00 0.00 0.00 57 1016.6
20260902220139 35 231 0.0 0.0 0.00 0.00 0.00 58 1016.7
20260902215635 35 224 0.0 0.0 0.00 0.00 0.00 58 1016.8
20260902215131 35 212 0.0 0.0 0.00 0.00 0.00 57 1016.7
20260902214631 35 184 0.0 0.0 0.00 0.00 0.00 56 1017.0
20260902214129 35 219 0.0 0.0 0.00 0.00 0.00 58 1016.9
20260902213626 35 233 0.0 0.0 0.00 0.00 0.00 59 1016.9
20260902213124 35 264 0.0 0.0 0.00 0.00 0.00 58 1016.7
20260902212620 35 237 0.0 0.0 0.00 0.00 0.00 58 1016.9
20260902212116 35 219 0.0 0.0 0.00 0.00 0.00 57 1016.9
20260902211613 36 229 0.0 0.0 0.00 0.00 0.00 56 1017.2
20260902211108 36 261 0.0 0.0 0.00 0.00 0.00 55 1016.8
20260902210607 36 212 0.0 0.0 0.00 0.00 0.00 57 1017.0
20260902205601 36 8 0.0 0.0 0.00 0.00 0.00 57 1017.2
20260902205057 35 235 0.0 0.0 0.00 0.00 0.00 56 1017.2
20260902204556 35 201 0.0 0.0 0.00 0.00 0.00 59 1017.0
20260902204051 35 232 0.0 0.0 0.00 0.00 0.00 60 1017.0
20260902203547 34 220 0.0 0.0 0.00 0.00 0.00 64 1017.1
20260902203045 33 250 0.0 0.0 0.00 0.00 0.00 66 1017.2
20260902202536 34 237 0.0 0.0 0.00 0.00 0.00 63 1017.3
20260902202032 35 242 0.0 0.0 0.00 0.00 0.00 61 1017.4
20260902201528 35 238 0.0 0.0 0.00 0.00 0.00 56 1017.7
20260902201027 36 146 0.0 0.0 0.00 0.00 0.00 57 1017.5
20260902200522 36 237 0.0 0.0 0.00 0.00 0.00 58 1017.6
20260902200018 36 246 0.0 0.0 0.00 0.00 0.00 60 1017.3
20260902195514 36 229 0.0 0.0 0.00 0.00 0.00 60 1017.6
20260902195013 36 255 0.0 0.0 0.00 0.00 0.00 61 1017.8
20260902194507 36 242 0.0 0.0 0.00 0.00 0.00 58 1017.9
20260902194002 36 236 0.0 0.0 0.00 0.00 0.00 55 1017.8
20260902193458 37 225 0.0 0.0 0.00 0.00 0.00 53 1017.7
20260902192956 37 156 0.0 0.0 0.00 0.00 0.00 52 1018.1
20260902192456 37 180 0.0 0.0 0.00 0.00 0.00 52 1017.9
20260902191954 37 243 0.0 0.0 0.00 0.00 0.00 51 1017.7
20260902191450 36 244 0.0 0.0 0.00 0.00 0.00 53 1018.0
20260902190945 35 182 0.0 0.0 0.00 0.00 0.00 57 1018.1
20260902190440 35 330 0.0 0.0 0.00 0.00 0.00 60 1018.1
20260902185936 35 229 0.0 0.0 0.00 0.00 0.00 61 1018.2
20260902185432 35 227 0.0 0.0 0.00 0.00 0.00 61 1018.0
20260902184927 35 254 0.0 0.0 0.00 0.00 0.00 59 1018.1
20260902184422 35 192 0.0 0.0 0.00 0.00 0.00 58 1018.1
20260902183918 34 228 0.0 0.0 0.00 0.00 0.00 62 1018.3
20260902183414 34 271 0.0 0.0 0.00 0.00 0.00 58 1018.4
20260902182909 35 235 0.0 0.0 0.00 0.00 0.00 61 1018.5
20260902182406 36 247 0.0 0.0 0.00 0.00 0.00 57 1018.7
20260902181902 37 34 0.0 0.0 0.00 0.00 0.00 53 1018.6
20260902181357 36 181 0.0 0.0 0.00 0.00 0.00 56 1018.7
20260902180857 35 327 0.0 0.0 0.00 0.00 0.00 56 1018.4